| time (UTC) | temp F | wind direction | speed knots | gust knots | rain 1hr in | rain 24hr in | rain mn in | humidity % | barometer mb |
| 20260507212325 | 55 | 270 | 8.7 | 18.2 | 0.00 | 1.37 | 1.37 | 84 | 1002.3 |
| 20260507211801 | 55 | 270 | 8.7 | 19.1 | 0.00 | 1.37 | 1.37 | 84 | 1002.4 |
| 20260507211309 | 56 | 225 | 12.2 | 20.0 | 0.00 | 1.37 | 1.37 | 82 | 1002.4 |
| 20260507210756 | 56 | 270 | 12.2 | 20.0 | 0.00 | 1.37 | 1.37 | 81 | 1002.6 |
| 20260507210233 | 56 | 225 | 11.3 | 18.2 | 0.00 | 1.37 | 1.37 | 80 | 1002.6 |
| 20260507205741 | 56 | 270 | 4.3 | 19.1 | 0.00 | 1.37 | 1.37 | 81 | 1002.3 |
| 20260507205222 | 56 | 225 | 9.6 | 19.1 | 0.00 | 1.37 | 1.37 | 80 | 1002.5 |
| 20260507204701 | 56 | 225 | 7.0 | 15.6 | 0.00 | 1.37 | 1.37 | 80 | 1002.3 |
| 20260507203646 | 56 | 180 | 10.4 | 16.5 | 0.00 | 1.37 | 1.37 | 80 | 1002.3 |
| 20260507203135 | 56 | 270 | 7.8 | 15.6 | 0.00 | 1.37 | 1.37 | 80 | 1002.2 |
| 20260507202112 | 56 | 270 | 7.0 | 19.1 | 0.00 | 1.37 | 1.37 | 80 | 1002.4 |
| 20260507201602 | 56 | 225 | 9.6 | 20.0 | 0.00 | 1.37 | 1.37 | 79 | 1001.9 |
| 20260507201058 | 56 | 270 | 13.0 | 20.0 | 0.00 | 1.37 | 1.37 | 78 | 1002.0 |
| 20260507200552 | 56 | 225 | 12.2 | 20.0 | 0.00 | 1.37 | 1.37 | 79 | 1001.8 |
| 20260507200030 | 56 | 225 | 9.6 | 20.0 | 0.00 | 1.37 | 1.37 | 79 | 1001.5 |
| 20260507195529 | 56 | 225 | 11.3 | 19.1 | 0.00 | 1.37 | 1.37 | 79 | 1001.7 |
| 20260507195019 | 57 | 225 | 11.3 | 20.0 | 0.00 | 1.37 | 1.37 | 78 | 1001.4 |
| 20260507194003 | 57 | 225 | 9.6 | 20.9 | 0.00 | 1.37 | 1.37 | 77 | 1000.9 |
| 20260507193440 | 57 | 225 | 7.8 | 20.9 | 0.00 | 1.37 | 1.37 | 75 | 1000.9 |
| 20260507192436 | 57 | 225 | 7.8 | 18.2 | 0.00 | 1.37 | 1.37 | 73 | 1000.2 |
| 20260507191402 | 58 | 180 | 8.7 | 18.2 | 0.00 | 1.37 | 1.37 | 73 | 1000.3 |
| 20260507190344 | 58 | 225 | 10.4 | 21.7 | 0.00 | 1.37 | 1.37 | 72 | 1001.2 |
| 20260507185337 | 58 | 225 | 9.6 | 19.1 | 0.00 | 1.37 | 1.37 | 71 | 1001.3 |
| 20260507184822 | 59 | 225 | 9.6 | 18.2 | 0.00 | 1.37 | 1.37 | 71 | 1001.7 |
| 20260507184259 | 59 | 225 | 7.8 | 18.2 | 0.00 | 1.37 | 1.37 | 70 | 1002.3 |
| 20260507183239 | 59 | 270 | 7.0 | 15.6 | 0.00 | 1.37 | 1.37 | 69 | 1002.9 |
| 20260507182738 | 59 | 225 | 9.6 | 18.2 | 0.00 | 1.37 | 1.37 | 68 | 1002.7 |
| 20260507182229 | 59 | 270 | 12.2 | 19.1 | 0.00 | 1.37 | 1.37 | 68 | 1002.7 |
| 20260507181704 | 59 | 225 | 9.6 | 20.0 | 0.00 | 1.37 | 1.37 | 68 | 1002.5 |
| 20260507181155 | 59 | 270 | 7.8 | 20.0 | 0.00 | 1.37 | 1.37 | 70 | 1002.6 |
| 20260507180707 | 59 | 270 | 7.0 | 16.5 | 0.00 | 1.37 | 1.37 | 68 | 1002.9 |
| 20260507180142 | 59 | 270 | 9.6 | 15.6 | 0.00 | 1.37 | 1.37 | 68 | 1003.4 |
| 20260507175633 | 58 | 270 | 7.0 | 14.8 | 0.00 | 1.37 | 1.37 | 70 | 1003.7 |
| 20260507175118 | 58 | 270 | 7.0 | 13.0 | 0.00 | 1.37 | 1.37 | 71 | 1003.9 |
| 20260507174625 | 58 | 270 | 6.1 | 10.4 | 0.00 | 1.37 | 1.37 | 72 | 1003.9 |
| 20260507174057 | 58 | 270 | 6.1 | 11.3 | 0.00 | 1.37 | 1.37 | 72 | 1004.1 |
| 20260507173550 | 58 | 270 | 4.3 | 12.2 | 0.00 | 1.37 | 1.37 | 72 | 1003.9 |
| 20260507173047 | 58 | 270 | 3.5 | 13.0 | 0.00 | 1.37 | 1.37 | 70 | 1003.8 |
| 20260507172528 | 58 | 270 | 5.2 | 13.0 | 0.00 | 1.37 | 1.37 | 71 | 1003.8 |
| 20260507172031 | 58 | 270 | 6.1 | 16.5 | 0.00 | 1.37 | 1.37 | 72 | 1003.6 |
| 20260507171524 | 58 | 225 | 5.2 | 16.5 | 0.00 | 1.37 | 1.37 | 72 | 1003.3 |
| 20260507170957 | 58 | 270 | 9.6 | 16.5 | 0.00 | 1.37 | 1.37 | 71 | 1002.8 |
| 20260507165942 | 58 | 225 | 4.3 | 13.0 | 0.00 | 1.37 | 1.37 | 73 | 1002.0 |
| 20260507165427 | 58 | 270 | 5.2 | 14.8 | 0.00 | 1.37 | 1.37 | 74 | 1002.2 |
| 20260507164918 | 58 | 270 | 7.0 | 14.8 | 0.00 | 1.37 | 1.37 | 74 | 1002.1 |
| 20260507164417 | 58 | 270 | 7.8 | 14.8 | 0.00 | 1.37 | 1.37 | 74 | 1002.5 |
| 20260507163347 | 57 | 270 | 9.6 | 13.9 | 0.00 | 1.37 | 1.37 | 73 | 1001.7 |
| 20260507160803 | 58 | 225 | 7.0 | 15.6 | 0.00 | 1.37 | 1.37 | 75 | 1002.9 |
| 20260507154719 | 58 | 270 | 7.0 | 20.9 | 0.00 | 1.37 | 1.37 | 75 | 1003.4 |
| 20260507154210 | 58 | 225 | 11.3 | 19.1 | 0.00 | 1.37 | 1.37 | 75 | 1002.9 |
| 20260507153707 | 58 | 270 | 11.3 | 20.0 | 0.00 | 1.37 | 1.37 | 74 | 1002.9 |
| 20260507153145 | 58 | 225 | 9.6 | 20.0 | 0.00 | 1.37 | 1.37 | 74 | 1002.9 |
| 20260507152650 | 58 | 225 | 5.2 | 21.7 | 0.00 | 1.37 | 1.37 | 76 | 1002.6 |
| 20260507152126 | 58 | 270 | 8.7 | 21.7 | 0.00 | 1.37 | 1.37 | 76 | 1002.7 |
| 20260507151614 | 58 | 225 | 15.6 | 21.7 | 0.00 | 1.37 | 1.37 | 75 | 1002.7 |
| 20260507151121 | 58 | 225 | 12.2 | 20.0 | 0.00 | 1.37 | 1.37 | 76 | 1002.3 |
| 20260507150552 | 58 | 225 | 7.0 | 20.0 | 0.00 | 1.37 | 1.37 | 76 | 1002.5 |
| 20260507150057 | 58 | 225 | 12.2 | 20.0 | 0.00 | 1.37 | 1.37 | 76 | 1002.4 |
| 20260507145023 | 58 | 270 | 9.6 | 18.2 | 0.00 | 1.37 | 1.37 | 76 | 1002.2 |
| 20260507144520 | 58 | 225 | 9.6 | 19.1 | 0.00 | 1.37 | 1.37 | 79 | 1002.4 |
| 20260507143454 | 58 | 270 | 9.6 | 15.6 | 0.00 | 1.37 | 1.37 | 78 | 1002.3 |
| 20260507142439 | 58 | 225 | 10.4 | 15.6 | 0.00 | 1.37 | 1.37 | 79 | 1002.4 |
| 20260507141932 | 58 | 270 | 7.0 | 18.2 | 0.00 | 1.37 | 1.37 | 80 | 1002.7 |
| 20260507141415 | 58 | 225 | 9.6 | 18.2 | 0.00 | 1.37 | 1.37 | 80 | 1002.7 |
| 20260507140911 | 58 | 225 | 12.2 | 16.5 | 0.00 | 1.37 | 1.37 | 80 | 1002.1 |
| 20260507140358 | 58 | 270 | 12.2 | 16.5 | 0.00 | 1.37 | 1.37 | 80 | 1002.5 |
| 20260507135843 | 59 | 270 | 9.6 | 18.2 | 0.00 | 1.37 | 1.37 | 81 | 1002.5 |
| 20260507135340 | 59 | 225 | 10.4 | 18.2 | 0.00 | 1.37 | 1.37 | 83 | 1002.9 |
| 20260507134827 | 59 | 225 | 6.1 | 13.0 | 0.00 | 1.37 | 1.37 | 85 | 1002.7 |
| 20260507134319 | 59 | 225 | 8.7 | 13.0 | 0.00 | 1.37 | 1.37 | 84 | 1002.6 |
| 20260507133814 | 59 | 225 | 7.0 | 13.0 | 0.00 | 1.37 | 1.37 | 84 | 1002.6 |
| 20260507133253 | 59 | 225 | 7.0 | 12.2 | 0.00 | 1.37 | 1.37 | 84 | 1002.1 |
| 20260507132745 | 59 | 225 | 7.0 | 12.2 | 0.00 | 1.37 | 1.37 | 84 | 1002.3 |
| 20260507132239 | 60 | 225 | 3.5 | 10.4 | 0.00 | 1.37 | 1.37 | 82 | 1002.1 |
| 20260507131721 | 60 | 225 | 3.5 | 14.8 | 0.00 | 1.37 | 1.37 | 81 | 1002.2 |
| 20260507131211 | 60 | 225 | 6.1 | 14.8 | 0.00 | 1.37 | 1.37 | 81 | 1002.5 |
| 20260507130717 | 60 | 225 | 7.0 | 11.3 | 0.00 | 1.37 | 1.37 | 81 | 1002.0 |
| 20260507130149 | 60 | 225 | 3.5 | 12.2 | 0.00 | 1.37 | 1.37 | 81 | 1002.3 |
| 20260507125641 | 60 | 270 | 5.2 | 12.2 | 0.00 | 1.37 | 1.37 | 83 | 1002.6 |
| 20260507125144 | 60 | 270 | 5.2 | 11.3 | 0.00 | 1.37 | 1.37 | 83 | 1002.1 |
| 20260507124622 | 60 | 225 | 7.0 | 11.3 | 0.00 | 1.37 | 1.37 | 82 | 1002.4 |
| 20260507124113 | 59 | 270 | 3.5 | 9.6 | 0.00 | 1.37 | 1.37 | 84 | 1002.6 |
| 20260507123608 | 59 | 270 | 2.6 | 9.6 | 0.00 | 1.37 | 1.37 | 85 | 1002.5 |
| 20260507123048 | 59 | 270 | 5.2 | 13.0 | 0.00 | 1.37 | 1.37 | 86 | 1002.6 |
| 20260507122542 | 59 | 270 | 6.1 | 13.0 | 0.00 | 1.37 | 1.37 | 86 | 1003.2 |
| 20260507122038 | 59 | 0 | 3.5 | 12.2 | 0.00 | 1.37 | 1.37 | 87 | 1003.0 |
| 20260507121519 | 59 | 180 | 3.5 | 13.0 | 0.00 | 1.37 | 1.37 | 87 | 1001.4 |
| 20260507121016 | 59 | 225 | 7.0 | 13.0 | 0.00 | 1.37 | 1.37 | 86 | 1000.5 |
| 20260507120509 | 59 | 270 | 5.2 | 8.7 | 0.00 | 1.37 | 1.37 | 86 | 1001.4 |
| 20260507115950 | 60 | 270 | 5.2 | 11.3 | 0.00 | 1.37 | 1.37 | 87 | 1001.4 |
| 20260507114940 | 59 | 225 | 5.2 | 13.0 | 0.00 | 1.37 | 1.37 | 88 | 1001.8 |
| 20260507113925 | 60 | 270 | 7.8 | 14.8 | 0.00 | 1.37 | 1.37 | 89 | 1001.7 |
| 20260507113404 | 60 | 225 | 9.6 | 14.8 | 0.00 | 1.37 | 1.37 | 89 | 1001.5 |
| 20260507112850 | 60 | 180 | 8.7 | 14.8 | 0.00 | 1.37 | 1.37 | 89 | 1000.9 |
| 20260507112339 | 60 | 225 | 7.8 | 13.0 | 0.00 | 1.37 | 1.37 | 90 | 1000.4 |
| 20260507111836 | 60 | 180 | 4.3 | 13.0 | 0.00 | 1.37 | 1.37 | 90 | 1000.7 |
| 20260507110806 | 60 | 180 | 4.3 | 10.4 | 0.00 | 1.37 | 1.37 | 90 | 1001.3 |
| 20260507110315 | 60 | 225 | 3.5 | 13.0 | 0.00 | 1.37 | 1.37 | 91 | 1001.5 |
| 20260507105746 | 60 | 225 | 6.1 | 17.4 | 0.00 | 1.37 | 1.37 | 90 | 1001.8 |
| 20260507104736 | 59 | 225 | 7.8 | 18.2 | 0.00 | 1.37 | 1.37 | 91 | 1000.3 |
| 20260507104214 | 59 | 225 | 7.8 | 16.5 | 0.00 | 1.37 | 1.37 | 92 | 1000.5 |
| 20260507103715 | 59 | 180 | 4.3 | 14.8 | 0.00 | 1.37 | 1.37 | 92 | 1000.1 |
| 20260507102644 | 59 | 225 | 5.2 | 9.6 | 0.00 | 1.37 | 1.37 | 92 | 1000.9 |
| 20260507101636 | 59 | 225 | 2.6 | 13.0 | 0.00 | 1.37 | 1.37 | 93 | 1000.7 |
| 20260507101117 | 60 | 270 | 3.5 | 13.0 | 0.00 | 1.37 | 1.37 | 93 | 1000.1 |
| 20260507100608 | 60 | 225 | 7.0 | 18.2 | 0.00 | 1.37 | 1.37 | 93 | 1000.6 |
| 20260507100118 | 60 | 270 | 5.2 | 18.2 | 0.00 | 1.37 | 1.37 | 93 | 1001.4 |
| 20260507095542 | 60 | 270 | 7.8 | 18.2 | 0.00 | 1.37 | 1.37 | 94 | 1001.2 |
| 20260507095052 | 60 | 225 | 8.7 | 18.2 | 0.00 | 1.37 | 1.37 | 93 | 1000.6 |
| 20260507094527 | 60 | 225 | 10.4 | 20.9 | 0.00 | 1.37 | 1.37 | 93 | 1000.5 |
| 20260507094013 | 60 | 180 | 7.8 | 20.9 | 0.00 | 1.37 | 1.37 | 93 | 1000.6 |
| 20260507093502 | 60 | 225 | 11.3 | 21.7 | 0.00 | 1.37 | 1.37 | 93 | 999.7 |
| 20260507093001 | 60 | 180 | 12.2 | 21.7 | 0.00 | 1.37 | 1.37 | 94 | 998.7 |
| 20260507092447 | 60 | 180 | 13.0 | 18.2 | 0.00 | 1.37 | 1.37 | 94 | 998.9 |
| 20260507091941 | 60 | 225 | 11.3 | 18.2 | 0.00 | 1.37 | 1.37 | 94 | 999.2 |
| 20260507091435 | 60 | 225 | 8.7 | 16.5 | 0.00 | 1.37 | 1.37 | 94 | 1000.4 |
| 20260507090911 | 60 | 225 | 9.6 | 14.8 | 0.00 | 1.37 | 1.37 | 94 | 1000.8 |
| 20260507090411 | 60 | 225 | 7.0 | 13.0 | 0.00 | 1.37 | 1.37 | 95 | 1000.8 |
| 20260507085347 | 61 | 225 | 7.0 | 12.2 | 0.00 | 1.37 | 1.37 | 96 | 1001.1 |
| 20260507084829 | 61 | 270 | 4.3 | 9.6 | 0.00 | 1.37 | 1.37 | 96 | 1001.0 |
| 20260507084335 | 61 | 225 | 5.2 | 9.6 | 0.00 | 1.37 | 1.37 | 96 | 1000.9 |
| 20260507083305 | 61 | 225 | 3.5 | 7.8 | 0.00 | 1.37 | 1.37 | 96 | 1001.2 |
| 20260507082759 | 61 | 270 | 3.5 | 7.8 | 0.00 | 1.37 | 1.37 | 96 | 1001.1 |
| 20260507082242 | 61 | 225 | 4.3 | 7.8 | 0.00 | 1.37 | 1.37 | 96 | 1000.6 |
| 20260507081735 | 61 | 225 | 4.3 | 7.0 | 0.00 | 1.37 | 1.37 | 96 | 1000.3 |
| 20260507081227 | 61 | 270 | 3.5 | 7.0 | 0.00 | 1.37 | 1.37 | 97 | 1000.5 |
| 20260507080711 | 61 | 225 | 4.3 | 7.0 | 0.01 | 1.37 | 1.37 | 97 | 1000.6 |
| 20260507080207 | 61 | 225 | 3.5 | 7.0 | 0.01 | 1.37 | 1.37 | 97 | 1000.8 |
| 20260507075657 | 61 | 225 | 1.7 | 7.0 | 0.01 | 1.37 | 1.37 | 97 | 1001.1 |
| 20260507075145 | 61 | 270 | 2.6 | 7.0 | 0.01 | 1.37 | 1.37 | 98 | 1001.4 |
| 20260507074635 | 62 | 270 | 3.5 | 7.0 | 0.01 | 1.37 | 1.37 | 98 | 1001.6 |
| 20260507074131 | 62 | 225 | 3.5 | 7.0 | 0.01 | 1.37 | 1.37 | 98 | 1001.6 |
| 20260507073614 | 62 | 270 | 3.5 | 7.0 | 0.01 | 1.37 | 1.37 | 98 | 1002.0 |
| 20260507073058 | 62 | 270 | 3.5 | 11.3 | 0.01 | 1.37 | 1.37 | 98 | 1001.8 |
| 20260507071032 | 62 | 225 | 7.0 | 11.3 | 0.01 | 1.37 | 1.37 | 98 | 1000.4 |
| 20260507070511 | 62 | 225 | 1.7 | 3.5 | 0.00 | 1.36 | 1.36 | 98 | 1000.4 |
| 20260507065959 | 62 | 270 | 1.7 | 2.6 | 0.00 | 1.36 | 1.36 | 98 | 1000.2 |
| 20260507065455 | 62 | 0 | 0.9 | 3.5 | 0.00 | 1.36 | 1.36 | 98 | 1000.2 |
| 20260507064940 | 62 | 315 | 1.7 | 3.5 | 0.00 | 1.36 | 1.36 | 98 | 1000.6 |
| 20260507063923 | 62 | 270 | 0.0 | 3.5 | 0.00 | 1.36 | 1.36 | 99 | 1000.4 |
| 20260507063413 | 62 | 270 | 1.7 | 3.5 | 0.01 | 1.36 | 1.36 | 98 | 1000.0 |
| 20260507062858 | 62 | 0 | 0.0 | 3.5 | 0.01 | 1.36 | 1.36 | 99 | 999.4 |
| 20260507062354 | 62 | 0 | 0.9 | 7.0 | 0.01 | 1.36 | 1.36 | 98 | 999.7 |
| 20260507061841 | 62 | 0 | 0.9 | 7.0 | 0.01 | 1.36 | 1.36 | 98 | 1000.0 |
| 20260507061332 | 62 | 0 | 1.7 | 7.0 | 0.02 | 1.36 | 1.36 | 98 | 1000.6 |
| 20260507060824 | 62 | 0 | 1.7 | 7.0 | 0.04 | 1.36 | 1.36 | 98 | 1000.4 |
| 20260507060308 | 62 | 0 | 3.5 | 7.0 | 0.06 | 1.36 | 1.36 | 98 | 999.4 |
| 20260507055759 | 62 | 180 | 1.7 | 7.0 | 0.06 | 1.36 | 1.36 | 99 | 997.9 |
| 20260507055254 | 62 | 90 | 3.5 | 7.0 | 0.07 | 1.36 | 1.36 | 98 | 998.7 |
| 20260507054737 | 63 | 0 | 1.7 | 3.5 | 0.07 | 1.36 | 1.36 | 99 | 1001.0 |
| 20260507054224 | 63 | 0 | 1.7 | 9.6 | 0.09 | 1.36 | 1.36 | 99 | 1001.2 |
| 20260507053730 | 62 | 90 | 1.7 | 9.6 | 0.11 | 1.36 | 1.36 | 99 | 1001.1 |
| 20260507053207 | 62 | 90 | 4.3 | 7.0 | 0.12 | 1.35 | 1.35 | 99 | 1001.0 |
| 20260507052658 | 62 | 180 | 3.5 | 6.1 | 0.12 | 1.35 | 1.35 | 99 | 1001.0 |
| 20260507051635 | 62 | 90 | 2.6 | 7.0 | 0.15 | 1.35 | 1.35 | 99 | 1002.2 |
| 20260507051123 | 62 | 45 | 1.7 | 7.0 | 0.24 | 1.32 | 1.32 | 99 | 1003.3 |
| 20260507050633 | 62 | 0 | 1.7 | 13.0 | 0.34 | 1.31 | 1.31 | 99 | 1003.1 |
| 20260507045600 | 62 | 180 | 9.6 | 14.8 | 0.58 | 1.30 | 1.30 | 98 | 1000.9 |
| 20260507045103 | 62 | 180 | 5.2 | 9.6 | 0.72 | 1.29 | 1.29 | 98 | 1001.1 |
| 20260507044544 | 62 | 180 | 2.6 | 12.2 | 1.03 | 1.28 | 1.29 | 99 | 1001.7 |
| 20260507044023 | 62 | 180 | 4.3 | 14.8 | 1.16 | 1.26 | 1.26 | 99 | 1001.2 |
| 20260507043004 | 62 | 180 | 8.7 | 18.2 | 1.23 | 1.23 | 1.23 | 98 | 999.8 |
| 20260507042455 | 62 | 180 | 7.0 | 18.2 | 1.22 | 1.22 | 1.22 | 98 | 1000.8 |
| 20260507041950 | 62 | 180 | 9.6 | 14.8 | 1.20 | 1.20 | 1.20 | 98 | 1000.7 |
| 20260507041439 | 62 | 135 | 3.5 | 19.1 | 1.18 | 1.18 | 1.18 | 98 | 1001.7 |
| 20260507040924 | 62 | 180 | 6.1 | 19.1 | 1.02 | 1.02 | 1.03 | 98 | 1000.9 |
| 20260507035913 | 63 | 135 | 9.6 | 22.6 | 0.83 | 0.83 | 0.86 | 98 | 1000.6 |
| 20260507035358 | 63 | 180 | 7.8 | 26.1 | 0.65 | 0.65 | 0.65 | 98 | 1001.2 |
| 20260507034848 | 65 | 180 | 18.2 | 26.1 | 0.53 | 0.53 | 0.53 | 97 | 1000.7 |
| 20260507034333 | 69 | 180 | 12.2 | 31.3 | 0.18 | 0.18 | 0.20 | 96 | 1001.5 |
| 20260507033319 | 76 | 270 | 15.6 | 29.5 | 0.00 | 0.00 | 0.00 | 81 | 1000.3 |
| 20260507032253 | 77 | 270 | 4.3 | 20.9 | 0.00 | 0.00 | 0.00 | 85 | 999.2 |
| 20260507031757 | 77 | 270 | 9.6 | 20.9 | 0.00 | 0.00 | 0.00 | 83 | 998.9 |
| 20260507031231 | 78 | 270 | 9.6 | 17.4 | 0.00 | 0.00 | 0.00 | 81 | 999.0 |
| 20260507030224 | 78 | 270 | 7.0 | 23.5 | 0.00 | 0.00 | 0.00 | 79 | 998.5 |
| 20260507025703 | 78 | 270 | 10.4 | 25.2 | 0.00 | 0.00 | 0.00 | 79 | 998.2 |
| 20260507025155 | 78 | 0 | 13.0 | 25.2 | 0.00 | 0.00 | 0.00 | 79 | 997.8 |
| 20260507024137 | 78 | 315 | 14.8 | 23.5 | 0.00 | 0.00 | 0.00 | 79 | 998.2 |
| 20260507023636 | 78 | 315 | 9.6 | 24.3 | 0.00 | 0.00 | 0.00 | 78 | 998.3 |
| 20260507023122 | 78 | 315 | 14.8 | 24.3 | 0.00 | 0.00 | 0.00 | 78 | 998.5 |
| 20260507022611 | 78 | 315 | 11.3 | 24.3 | 0.00 | 0.00 | 0.00 | 79 | 998.8 |
| 20260507021546 | 78 | 315 | 13.0 | 24.3 | 0.00 | 0.00 | 0.00 | 78 | 999.0 |
| 20260507021034 | 78 | 315 | 11.3 | 20.0 | 0.00 | 0.00 | 0.00 | 78 | 998.9 |
| 20260507020531 | 78 | 315 | 9.6 | 22.6 | 0.00 | 0.00 | 0.00 | 79 | 998.8 |
| 20260507020028 | 78 | 0 | 13.0 | 22.6 | 0.00 | 0.00 | 0.00 | 79 | 998.9 |
| 20260507015501 | 78 | 315 | 9.6 | 23.5 | 0.00 | 0.00 | 0.00 | 79 | 998.8 |
| 20260507014958 | 78 | 315 | 10.4 | 23.5 | 0.00 | 0.00 | 0.00 | 79 | 998.6 |
| 20260507014457 | 78 | 315 | 13.0 | 22.6 | 0.00 | 0.00 | 0.00 | 79 | 998.6 |
| 20260507013421 | 78 | 0 | 8.7 | 23.5 | 0.00 | 0.00 | 0.00 | 80 | 998.6 |
| 20260507012421 | 78 | 0 | 13.0 | 24.3 | 0.00 | 0.00 | 0.00 | 79 | 998.7 |
| 20260507011850 | 78 | 0 | 13.0 | 26.1 | 0.00 | 0.00 | 0.00 | 79 | 998.8 |
| 20260507011346 | 78 | 0 | 9.6 | 26.1 | 0.00 | 0.00 | 0.00 | 79 | 999.1 |
| 20260507010833 | 78 | 315 | 10.4 | 20.9 | 0.00 | 0.00 | 0.00 | 78 | 999.3 |
| 20260507010322 | 79 | 315 | 6.1 | 23.5 | 0.00 | 0.00 | 0.00 | 78 | 999.5 |
| 20260507005827 | 79 | 315 | 8.7 | 27.8 | 0.00 | 0.00 | 0.00 | 78 | 999.6 |
| 20260507005259 | 79 | 315 | 7.0 | 27.8 | 0.00 | 0.00 | 0.00 | 77 | 999.5 |
| 20260507004750 | 79 | 0 | 9.6 | 18.2 | 0.00 | 0.00 | 0.00 | 77 | 999.4 |
| 20260507004243 | 79 | 0 | 8.7 | 25.2 | 0.00 | 0.00 | 0.00 | 77 | 999.4 |
| 20260507003731 | 79 | 0 | 7.0 | 25.2 | 0.00 | 0.00 | 0.00 | 77 | 999.1 |
| 20260507003218 | 79 | 0 | 7.8 | 20.0 | 0.00 | 0.00 | 0.00 | 76 | 999.5 |
| 20260507002724 | 79 | 315 | 7.0 | 20.9 | 0.00 | 0.00 | 0.00 | 76 | 999.7 |
| 20260507002158 | 79 | 0 | 10.4 | 20.9 | 0.00 | 0.00 | 0.00 | 76 | 999.6 |
| 20260506235641 | 79 | 270 | 7.0 | 22.6 | 0.00 | 0.00 | 0.00 | 76 | 999.1 |
| 20260506235100 | 79 | 315 | 9.6 | 20.0 | 0.00 | 0.00 | 0.00 | 76 | 999.1 |
| 20260506234042 | 79 | 315 | 9.6 | 22.6 | 0.00 | 0.00 | 0.00 | 77 | 999.4 |
| 20260506233529 | 79 | 315 | 13.0 | 21.7 | 0.00 | 0.00 | 0.00 | 77 | 999.0 |
| 20260506233021 | 79 | 0 | 6.1 | 18.2 | 0.00 | 0.00 | 0.00 | 77 | 999.3 |
| 20260506232525 | 79 | 315 | 8.7 | 17.4 | 0.00 | 0.00 | 0.00 | 76 | 999.2 |
| 20260506232032 | 79 | 0 | 7.8 | 17.4 | 0.00 | 0.00 | 0.00 | 76 | 999.5 |
| 20260506230944 | 79 | 0 | 5.2 | 14.8 | 0.00 | 0.00 | 0.00 | 76 | 999.9 |
| 20260506230447 | 80 | 0 | 5.2 | 13.9 | 0.00 | 0.00 | 0.00 | 76 | 999.8 |
| 20260506225919 | 80 | 315 | 7.0 | 13.9 | 0.00 | 0.00 | 0.00 | 76 | 999.8 |
| 20260506225410 | 80 | 0 | 4.3 | 16.5 | 0.00 | 0.00 | 0.00 | 75 | 999.8 |
| 20260506224905 | 80 | 0 | 3.5 | 16.5 | 0.00 | 0.00 | 0.00 | 75 | 999.8 |
| 20260506224350 | 80 | 0 | 3.5 | 13.0 | 0.00 | 0.00 | 0.00 | 75 | 999.9 |
| 20260506223846 | 80 | 0 | 3.5 | 12.2 | 0.00 | 0.00 | 0.00 | 75 | 999.7 |
| 20260506223334 | 80 | 0 | 6.1 | 14.8 | 0.00 | 0.00 | 0.00 | 74 | 999.7 |
| 20260506222821 | 81 | 0 | 5.2 | 14.8 | 0.00 | 0.00 | 0.00 | 74 | 999.7 |
| 20260506221803 | 81 | 0 | 7.0 | 14.8 | 0.00 | 0.00 | 0.00 | 73 | 999.8 |
| 20260506221244 | 81 | 0 | 7.0 | 14.8 | 0.00 | 0.00 | 0.00 | 72 | 999.8 |
| 20260506220233 | 81 | 0 | 5.2 | 13.0 | 0.00 | 0.00 | 0.00 | 72 | 1000.0 |
| 20260506215717 | 82 | 0 | 6.1 | 13.0 | 0.00 | 0.00 | 0.00 | 71 | 1000.3 |
| 20260506215211 | 82 | 0 | 7.0 | 14.8 | 0.00 | 0.00 | 0.00 | 71 | 1000.2 |
| 20260506214654 | 82 | 45 | 5.2 | 14.8 | 0.00 | 0.00 | 0.00 | 71 | 1000.4 |
| 20260506214145 | 82 | 0 | 5.2 | 12.2 | 0.00 | 0.00 | 0.00 | 71 | 1000.4 |
| 20260506213639 | 82 | 0 | 7.0 | 9.6 | 0.00 | 0.00 | 0.00 | 71 | 1000.6 |
| 20260506213128 | 82 | 0 | 6.1 | 8.7 | 0.00 | 0.00 | 0.00 | 70 | 1000.7 |